Location: Lake Mineral Wells State Park
(32.8157°N, 98.0290°W)
Time: 04:57:50
(UTC-05:00)

ISS - Visible Passes

Search period start: 19 October 2019 00:00
Search period end: 29 October 2019 00:00
Orbit: 411 x 421 km, 51.6° (Epoch: 19 October)

Date Brightness Start Highest point End Pass type
(mag) Time Alt. Az. Time Alt. Az. Time Alt. Az.
21 Oct -0.6 06:45:29 10° SSE 06:47:19 14° SE 06:49:10 10° E visible
23 Oct -2.8 06:43:25 10° SSW 06:46:40 48° SE 06:49:55 10° ENE visible
24 Oct -1.6 05:56:58 19° SSE 05:58:12 24° SE 06:00:58 10° ENE visible
25 Oct -3.4 06:44:24 23° WSW 06:46:10 44° NW 06:49:24 10° NNE visible
26 Oct -2.7 05:58:35 42° NE 05:58:35 42° NE 06:00:55 10° NE visible
27 Oct -2.0 06:45:30 17° NW 06:45:51 17° NNW 06:48:09 10° N visible
28 Oct -1.2 05:59:18 14° NNE 05:59:18 14° NNE 06:00:02 10° NNE visible
